1998-067LL

Last updated on Thu May 25 2017 00:15:03 GMT+0000 (Coordinated Universal Time)

1 42703U 98067LL 17144.51176103 .00018669 00000-0 27923-3 0 9993 2 42703 51.6390 156.2603 0001495 139.2895 319.5883 15.55036286 1167

Satellite not in orbit